Weather History for Dayton Wright, OH

Change the Weather History Date:

Saturday, April 6, 2013

  Actual Average (KFFO) Record (KFFO)
Temperature  
Mean Temperature 50 °F -  
Max Temperature 64 °F 59 °F 78 °F (2005)
Min Temperature 35 °F 37 °F 20 °F (2007)
Degree Days  
Heating Degree Days 16    
Moisture  
Dew Point 26 °F    
Average Humidity 41    
Maximum Humidity 57    
Minimum Humidity 27    
Precipitation  
Precipitation 0.00 in - - ()
Sea Level Pressure  
Sea Level Pressure 30.09 in    
Wind  
Wind Speed 8 mph (SE)    
Max Wind Speed 15 mph    
Max Gust Speed 20 mph    
Visibility 10 miles    
Events      
Averages and records for this station are not official NWS values.
T = Trace of Precipitation, MM = Missing Value Source: NWS Daily Summary

Daily Weather History Graph

Daily Weather History Graph

Search for Another Location

Airport:

Trip Planner

Search our weather history database for the weather conditions in past years. The results will help you decide how hot, cold, wet, or windy it might be!

Date:

Astronomy

Apr. 06, 2013 Rise Set
Actual Time 7:12 AM EDT 8:06 PM EDT
Civil Twilight 6:45 AM EDT 8:33 PM EDT
Nautical Twilight 6:13 AM EDT 9:06 PM EDT
Astronomical Twilight 5:39 AM EDT 9:39 PM EDT
Moon 4:55 AM EDT (4/6) 4:34 PM EDT (4/6)
Length of Visible Light 13h 48m
Length of Day
12h 53m
Waning Crescent, 15% of the Moon is Illuminated
Apr 6
Waning Crescent
Apr 10
New
Apr 18
First Quarter
Apr 25
Full
May 2
Last Quarter

Hourly Weather History & Observations

Time (EDT) Temp. Windchill Dew Point Humidity Pressure Visibility Wind Dir Wind Speed Gust Speed Precip Events Conditions
12:53 AM 39.9 °F 35.1 °F 23.0 °F 51% 30.14 in 10.0 mi ENE 6.9 mph - N/A   Clear
1:53 AM 39.9 °F 34.5 °F 23.0 °F 51% 30.15 in 10.0 mi ENE 8.1 mph - N/A   Clear
2:53 AM 39.0 °F 34.8 °F 21.0 °F 49% 30.16 in 10.0 mi East 5.8 mph - N/A   Clear
3:53 AM 37.0 °F 31.6 °F 21.0 °F 52% 30.16 in 10.0 mi East 6.9 mph - N/A   Clear
4:53 AM 37.0 °F 33.3 °F 21.0 °F 52% 30.16 in 10.0 mi East 4.6 mph - N/A   Clear
5:53 AM 36.0 °F 30.3 °F 21.0 °F 55% 30.18 in 10.0 mi East 6.9 mph - N/A   Partly Cloudy
6:53 AM 35.1 °F 29.3 °F 21.0 °F 57% 30.21 in 10.0 mi East 6.9 mph - N/A   Scattered Clouds
7:53 AM 35.1 °F 30.1 °F 21.0 °F 57% 30.23 in 10.0 mi ESE 5.8 mph - N/A   Clear
8:53 AM 39.0 °F 30.6 °F 21.0 °F 49% 30.22 in 10.0 mi ESE 15.0 mph - N/A   Clear
9:53 AM 44.1 °F 37.7 °F 19.9 °F 38% 30.21 in 10.0 mi SSE 12.7 mph - N/A   Clear
10:53 AM 48.0 °F - 21.9 °F 36% 30.20 in 10.0 mi ESE 12.7 mph - N/A   Clear
11:53 AM 50.0 °F - 23.0 °F 35% 30.17 in 10.0 mi SSE 13.8 mph - N/A   Scattered Clouds
12:53 PM 52.0 °F - 25.0 °F 35% 30.14 in 10.0 mi SSE 10.4 mph - N/A   Overcast
1:53 PM 55.9 °F - 27.0 °F 33% 30.12 in 10.0 mi SSE 9.2 mph - N/A   Mostly Cloudy
2:53 PM 59.0 °F - 28.0 °F 31% 30.09 in 10.0 mi Variable 4.6 mph 16.1 mph N/A   Partly Cloudy
3:53 PM 62.1 °F - 30.0 °F 30% 30.05 in 10.0 mi SSE 9.2 mph - N/A   Clear
4:53 PM 64.0 °F - 28.9 °F 27% 30.00 in 10.0 mi SSE 11.5 mph 19.6 mph N/A   Clear
5:53 PM 63.0 °F - 30.0 °F 29% 29.97 in 10.0 mi SSE 11.5 mph - N/A   Clear
6:53 PM 63.0 °F - 32.0 °F 31% 29.96 in 10.0 mi SSE 8.1 mph - N/A   Clear
7:53 PM 61.0 °F - 32.0 °F 34% 29.93 in 10.0 mi SE 8.1 mph - N/A   Clear
8:53 PM 60.1 °F - 34.0 °F 38% 29.93 in 10.0 mi SSE 9.2 mph - N/A   Clear
9:53 PM 59.0 °F - 34.0 °F 39% 29.93 in 10.0 mi South 10.4 mph - N/A   Clear
10:53 PM 57.9 °F - 34.0 °F 41% 29.91 in 10.0 mi South 10.4 mph - N/A   Clear
11:53 PM 59.0 °F - 35.1 °F 41% 29.90 in 10.0 mi South 12.7 mph - N/A   Partly Cloudy